TimeEDT,TemperatureF,Dew PointF,Humidity,Sea Level PressureIn,VisibilityMPH,Wind Direction,Wind SpeedMPH,Gust SpeedMPH,PrecipitationIn,Events,Conditions,WindDirDegrees,DateUTC
12:55 AM,64.0,53.1,67,30.04,10.0,East,5.8,-,N/A,,Mostly Cloudy,100,2013-09-09 04:55:00
1:55 AM,63.0,53.1,70,30.02,10.0,ESE,9.2,-,0.00,Rain,Light Rain,120,2013-09-09 05:55:00
2:55 AM,62.1,55.0,78,30.01,10.0,East,5.8,-,0.00,Rain,Light Rain,100,2013-09-09 06:55:00
3:55 AM,62.1,55.9,80,29.99,10.0,ESE,8.1,-,0.00,,Overcast,110,2013-09-09 07:55:00
4:45 AM,62.6,57.2,82,30.01,5.0,South,4.6,-,0.04,Rain-Thunderstorm,Thunderstorms and Rain,180,2013-09-09 08:45:00
4:55 AM,62.1,57.9,86,30.00,5.0,SSE,4.6,-,0.06,Rain-Thunderstorm,Thunderstorms and Rain,150,2013-09-09 08:55:00
5:41 AM,62.6,59.0,88,29.98,1.8,SE,11.5,-,0.22,Rain-Thunderstorm,Heavy Rain,140,2013-09-09 09:41:00
5:50 AM,62.6,60.8,94,29.98,2.0,SE,9.2,-,0.35,Rain-Thunderstorm,Thunderstorms and Rain,140,2013-09-09 09:50:00
5:55 AM,62.1,59.0,90,29.97,2.0,SE,13.8,17.3,0.39,Rain-Thunderstorm,Heavy Thunderstorms and Rain,130,2013-09-09 09:55:00
6:03 AM,62.6,60.8,94,29.97,1.8,SE,10.4,-,0.14,Rain-Thunderstorm,Thunderstorms and Rain,140,2013-09-09 10:03:00
6:06 AM,62.6,60.8,94,29.97,3.0,SE,10.4,-,0.15,Rain-Thunderstorm,Light Thunderstorms and Rain,130,2013-09-09 10:06:00
6:15 AM,62.6,60.8,94,29.97,6.0,SE,11.5,-,0.16,Rain-Thunderstorm,Light Thunderstorms and Rain,130,2013-09-09 10:15:00
6:28 AM,62.6,60.8,94,29.97,8.0,SE,8.1,-,0.17,Rain,Light Rain,130,2013-09-09 10:28:00
6:48 AM,64.4,60.8,88,29.96,5.0,SE,10.4,-,0.21,Rain,Rain,130,2013-09-09 10:48:00
6:55 AM,64.0,62.1,93,29.96,5.0,SE,6.9,-,0.22,Rain,Light Rain,140,2013-09-09 10:55:00
7:30 AM,64.4,62.6,94,29.97,8.0,East,4.6,-,0.02,Rain,Light Rain,100,2013-09-09 11:30:00
7:55 AM,64.0,61.0,90,29.97,8.0,East,5.8,-,0.02,,Overcast,80,2013-09-09 11:55:00
8:55 AM,63.0,61.0,93,29.99,7.0,SE,5.8,-,N/A,,Overcast,130,2013-09-09 12:55:00
9:03 AM,64.4,60.8,88,29.99,8.0,ESE,6.9,-,N/A,,Overcast,120,2013-09-09 13:03:00
9:55 AM,64.9,62.1,90,29.98,8.0,ESE,6.9,-,N/A,,Overcast,110,2013-09-09 13:55:00
10:05 AM,64.4,62.6,94,29.98,8.0,ESE,9.2,-,N/A,,Overcast,110,2013-09-09 14:05:00
10:13 AM,66.2,62.6,88,29.98,9.0,ESE,10.4,-,N/A,,Overcast,120,2013-09-09 14:13:00
10:46 AM,68.0,62.6,83,29.97,10.0,SE,12.7,-,N/A,,Mostly Cloudy,140,2013-09-09 14:46:00
10:55 AM,69.1,63.0,81,29.96,10.0,SE,12.7,20.7,N/A,,Mostly Cloudy,140,2013-09-09 14:55:00
11:33 AM,71.6,64.4,78,29.97,10.0,SSE,8.1,-,N/A,,Mostly Cloudy,150,2013-09-09 15:33:00
11:41 AM,73.4,64.4,73,29.96,10.0,SE,9.2,-,N/A,,Mostly Cloudy,140,2013-09-09 15:41:00
11:55 AM,72.0,64.0,76,29.96,10.0,SSE,10.4,-,N/A,,Mostly Cloudy,150,2013-09-09 15:55:00
12:55 PM,75.0,66.0,73,29.94,10.0,SSE,8.1,-,N/A,,Mostly Cloudy,150,2013-09-09 16:55:00
1:20 PM,77.0,66.2,69,29.94,10.0,SE,5.8,-,N/A,,Mostly Cloudy,130,2013-09-09 17:20:00
1:55 PM,80.1,68.0,67,29.92,10.0,SSE,5.8,-,N/A,,Overcast,150,2013-09-09 17:55:00
2:38 PM,82.4,69.8,66,29.92,10.0,South,5.8,-,N/A,,Scattered Clouds,180,2013-09-09 18:38:00
2:55 PM,82.0,70.0,67,29.90,10.0,South,6.9,-,N/A,,Scattered Clouds,170,2013-09-09 18:55:00
3:55 PM,82.9,66.0,56,29.89,10.0,South,12.7,-,N/A,,Partly Cloudy,190,2013-09-09 19:55:00
4:55 PM,82.9,69.1,63,29.86,10.0,SSW,12.7,-,N/A,,Partly Cloudy,200,2013-09-09 20:55:00
5:55 PM,84.9,68.0,57,29.85,10.0,South,12.7,18.4,N/A,,Scattered Clouds,180,2013-09-09 21:55:00
6:55 PM,84.9,69.1,59,29.83,10.0,South,10.4,-,N/A,,Scattered Clouds,170,2013-09-09 22:55:00
7:55 PM,82.9,70.0,65,29.82,10.0,SSE,8.1,-,N/A,,Scattered Clouds,150,2013-09-09 23:55:00
8:55 PM,81.0,70.0,69,29.81,10.0,SSE,8.1,-,N/A,,Partly Cloudy,160,2013-09-10 00:55:00
9:55 PM,80.1,71.1,74,29.82,9.0,SSE,5.8,-,N/A,,Partly Cloudy,160,2013-09-10 01:55:00
10:55 PM,82.0,71.1,69,29.83,9.0,SSW,12.7,-,N/A,,Partly Cloudy,210,2013-09-10 02:55:00
11:55 PM,79.0,70.0,74,29.83,9.0,SSW,11.5,-,N/A,,Clear,210,2013-09-10 03:55:00